RYR1ST EBCI-LEXJ

Flight info

Callsign RYR1ST
Flight time 1h 31m
Altitude 31000
Route CIV N872 LESDO DCT KOVIN/N0457F330 DCT NIDUV DCT KIHVI UN872 TERPO DCT PEXOD DCT NENEM/N0390F190 Q42 XORNA
Aircraft B738/M-SDE2E3FGHIRWXY/LB1

Departure

Time 2026-05-08 07:26
Airport Brussels South Charleroi Airport (EBCI)

Arrival

Time 2026-05-08 08:57
Airport Seve Ballesteros-Santander Airport (LEXJ)
Time Latitude Longitude Altitude Speed Heading
2026-05-08 07:16 50.46886 4.47171 609 ft 0 kts 335°
2026-05-08 07:19 50.46885 4.47172 628 ft 2 kts 335°
2026-05-08 07:19 50.46864 4.47191 625 ft 4 kts 317°
2026-05-08 07:19 50.46850 4.47222 620 ft 4 kts 270°
2026-05-08 07:19 50.46852 4.47241 624 ft 0 kts 245°
2026-05-08 07:22 50.46848 4.47228 620 ft 4 kts 242°
2026-05-08 07:22 50.46818 4.47232 615 ft 6 kts 125°
2026-05-08 07:22 50.46822 4.47296 611 ft 6 kts 90°
2026-05-08 07:23 50.46799 4.47347 623 ft 6 kts 156°
2026-05-08 07:23 50.46758 4.47316 610 ft 8 kts 234°
2026-05-08 07:23 50.46730 4.47228 621 ft 10 kts 245°
2026-05-08 07:23 50.46698 4.47118 615 ft 12 kts 245°
2026-05-08 07:24 50.46662 4.46996 617 ft 13 kts 246°
2026-05-08 07:24 50.46630 4.46883 619 ft 9 kts 244°
2026-05-08 07:24 50.46593 4.46840 616 ft 6 kts 178°
2026-05-08 07:24 50.46559 4.46859 618 ft 5 kts 154°
2026-05-08 07:25 50.46526 4.46882 616 ft 6 kts 159°
2026-05-08 07:25 50.46472 4.46908 624 ft 9 kts 182°
2026-05-08 07:25 50.46347 4.46541 624 ft 59 kts 244°
2026-05-08 07:26 50.46075 4.45600 630 ft 125 kts 245°
2026-05-08 07:26 50.45641 4.44134 719 ft 168 kts 243°
2026-05-08 07:26 50.45111 4.42433 1304 ft 175 kts 242°
2026-05-08 07:26 50.44565 4.40794 2131 ft 174 kts 242°
2026-05-08 07:27 50.44045 4.38969 2642 ft 193 kts 246°
2026-05-08 07:27 50.43501 4.36949 3228 ft 205 kts 246°
2026-05-08 07:27 50.42921 4.34844 3792 ft 217 kts 245°
2026-05-08 07:27 50.42271 4.32525 4040 ft 247 kts 245°
2026-05-08 07:28 50.41702 4.29868 4664 ft 264 kts 258°
2026-05-08 07:28 50.41385 4.26991 5774 ft 270 kts 260°
2026-05-08 07:28 50.41073 4.24104 6941 ft 273 kts 259°
2026-05-08 07:28 50.40745 4.21143 8060 ft 277 kts 259°
2026-05-08 07:29 50.40404 4.18159 9183 ft 280 kts 259°
2026-05-08 07:29 50.40051 4.15133 10231 ft 283 kts 259°
2026-05-08 07:29 50.39682 4.12017 10856 ft 302 kts 259°
2026-05-08 07:29 50.39273 4.08616 11089 ft 332 kts 259°
2026-05-08 07:30 50.38826 4.04927 11415 ft 354 kts 258°
2026-05-08 07:30 50.38358 4.01085 12183 ft 361 kts 258°
2026-05-08 07:30 50.37884 3.97205 13127 ft 362 kts 258°
2026-05-08 07:30 50.37407 3.93319 14046 ft 364 kts 258°
2026-05-08 07:31 50.36924 3.89394 14798 ft 368 kts 258°
2026-05-08 07:31 50.36441 3.85488 15485 ft 374 kts 258°
2026-05-08 07:31 50.35944 3.81469 16183 ft 378 kts 258°
2026-05-08 07:31 50.35437 3.77395 16870 ft 382 kts 258°
2026-05-08 07:32 50.34912 3.73289 17530 ft 387 kts 255°
2026-05-08 07:32 50.33853 3.69430 18124 ft 389 kts 234°
2026-05-08 07:32 50.32001 3.66349 18758 ft 390 kts 217°
2026-05-08 07:32 50.29644 3.64239 19341 ft 391 kts 203°
2026-05-08 07:33 50.27124 3.62589 19902 ft 394 kts 202°
2026-05-08 07:33 50.24574 3.60952 20397 ft 398 kts 202°
2026-05-08 07:33 50.22011 3.59265 20897 ft 401 kts 203°
2026-05-08 07:33 50.19432 3.57536 21406 ft 404 kts 204°
2026-05-08 07:34 50.16850 3.55796 21889 ft 406 kts 204°
2026-05-08 07:34 50.14267 3.54062 22358 ft 409 kts 204°
2026-05-08 07:34 50.11642 3.52304 22810 ft 412 kts 204°
2026-05-08 07:34 50.08995 3.50534 23251 ft 414 kts 204°
2026-05-08 07:35 50.06337 3.48758 23679 ft 417 kts 204°
2026-05-08 07:35 50.03663 3.46974 24029 ft 419 kts 204°
2026-05-08 07:35 50.00975 3.45182 24383 ft 421 kts 204°
2026-05-08 07:35 49.98270 3.43382 24735 ft 423 kts 204°
2026-05-08 07:36 49.95566 3.41584 25056 ft 425 kts 204°
2026-05-08 07:36 49.92839 3.39772 25381 ft 426 kts 204°
2026-05-08 07:36 49.90135 3.37978 25690 ft 428 kts 204°
2026-05-08 07:36 49.87391 3.36160 26029 ft 430 kts 204°
2026-05-08 07:37 49.84631 3.34333 26340 ft 431 kts 204°
2026-05-08 07:37 49.81865 3.32505 26641 ft 433 kts 204°
2026-05-08 07:37 49.79082 3.30666 26941 ft 435 kts 204°
2026-05-08 07:37 49.76294 3.28822 27236 ft 437 kts 204°
2026-05-08 07:38 49.73490 3.26967 27528 ft 438 kts 204°
2026-05-08 07:38 49.70675 3.25107 27818 ft 440 kts 204°
2026-05-08 07:38 49.67855 3.23246 28098 ft 441 kts 204°
2026-05-08 07:38 49.65059 3.21403 28389 ft 443 kts 204°
2026-05-08 07:39 49.62217 3.19531 28692 ft 444 kts 204°
2026-05-08 07:39 49.59381 3.17667 29106 ft 442 kts 204°
2026-05-08 07:39 49.56553 3.15810 29581 ft 439 kts 204°
2026-05-08 07:39 49.53747 3.13971 30048 ft 437 kts 204°
2026-05-08 07:40 49.51032 3.11861 30345 ft 437 kts 214°
2026-05-08 07:40 49.48662 3.08932 30574 ft 438 kts 224°
2026-05-08 07:40 49.46646 3.05425 30892 ft 438 kts 234°
2026-05-08 07:40 49.45063 3.01444 31288 ft 436 kts 240°
2026-05-08 07:41 49.43614 2.97433 31646 ft 435 kts 241°
2026-05-08 07:41 49.42144 2.93358 31941 ft 435 kts 240°
2026-05-08 07:41 49.40662 2.89300 32265 ft 436 kts 240°
2026-05-08 07:41 49.39166 2.85259 32593 ft 435 kts 240°
2026-05-08 07:42 49.37663 2.81233 32939 ft 434 kts 240°
2026-05-08 07:42 49.36148 2.77189 33085 ft 438 kts 240°
2026-05-08 07:42 49.34624 2.73132 33087 ft 440 kts 240°
2026-05-08 07:43 49.31701 2.64989 33073 ft 435 kts 242°
2026-05-08 07:43 49.28865 2.56842 33090 ft 432 kts 242°
2026-05-08 07:44 49.26014 2.48725 33084 ft 432 kts 242°
2026-05-08 07:44 49.23146 2.40630 33066 ft 432 kts 242°
2026-05-08 07:45 49.20289 2.32596 33080 ft 432 kts 242°
2026-05-08 07:45 49.17362 2.24550 33077 ft 433 kts 241°
2026-05-08 07:46 49.14391 2.16539 33075 ft 433 kts 241°
2026-05-08 07:46 49.11420 2.08516 33070 ft 433 kts 241°
2026-05-08 07:47 49.08562 2.00422 33071 ft 433 kts 245°
2026-05-08 07:47 49.06067 1.92106 33057 ft 433 kts 246°
2026-05-08 07:48 49.03630 1.83826 33072 ft 432 kts 246°
2026-05-08 07:48 49.01156 1.75546 33084 ft 432 kts 246°
2026-05-08 07:49 48.98640 1.67223 33065 ft 432 kts 246°
2026-05-08 07:49 48.96116 1.58920 33078 ft 431 kts 246°
2026-05-08 07:50 48.93589 1.50636 33073 ft 431 kts 246°
2026-05-08 07:50 48.91077 1.42426 33074 ft 430 kts 246°
2026-05-08 07:51 48.88548 1.34186 33078 ft 430 kts 246°
2026-05-08 07:51 48.86009 1.25944 33081 ft 429 kts 246°
2026-05-08 07:52 48.83469 1.17721 33074 ft 429 kts 246°
2026-05-08 07:52 48.80945 1.09580 33057 ft 428 kts 246°
2026-05-08 07:53 48.78404 1.01408 33053 ft 428 kts 246°
2026-05-08 07:53 48.75855 0.93232 33063 ft 428 kts 246°
2026-05-08 07:54 48.73151 0.85243 33069 ft 429 kts 242°
2026-05-08 07:54 48.70009 0.77541 33061 ft 429 kts 240°
2026-05-08 07:55 48.66835 0.69883 33041 ft 429 kts 240°
2026-05-08 07:55 48.63685 0.62198 33032 ft 429 kts 242°
2026-05-08 07:56 48.60568 0.54556 33046 ft 429 kts 242°
2026-05-08 07:56 48.57428 0.46866 33041 ft 429 kts 242°
2026-05-08 07:57 48.54283 0.39190 33030 ft 429 kts 243°
2026-05-08 07:57 48.51668 0.32821 33035 ft 429 kts 243°
2026-05-08 07:58 48.48002 0.23922 33028 ft 430 kts 243°
2026-05-08 07:58 48.45369 0.17548 33035 ft 430 kts 243°
2026-05-08 07:59 48.42205 0.09908 33019 ft 430 kts 243°
2026-05-08 07:59 48.39034 0.02269 33029 ft 430 kts 243°
2026-05-08 08:00 48.35826 -0.05340 33015 ft 432 kts 241°
2026-05-08 08:00 48.32226 -0.12611 33032 ft 434 kts 239°
2026-05-08 08:01 48.28571 -0.19841 33024 ft 435 kts 239°
2026-05-08 08:01 48.24958 -0.27065 33026 ft 436 kts 239°
2026-05-08 08:02 48.21272 -0.34308 32999 ft 436 kts 238°
2026-05-08 08:02 48.17572 -0.41524 33013 ft 437 kts 238°
2026-05-08 08:03 48.13866 -0.48745 33021 ft 437 kts 238°
2026-05-08 08:03 48.10158 -0.55964 33019 ft 437 kts 238°
2026-05-08 08:04 48.06474 -0.63118 33021 ft 437 kts 238°
2026-05-08 08:04 48.02760 -0.70310 33022 ft 437 kts 238°
2026-05-08 08:05 47.99035 -0.77507 33011 ft 437 kts 238°
2026-05-08 08:05 47.95333 -0.84638 33018 ft 436 kts 238°
2026-05-08 08:06 47.91610 -0.91793 33012 ft 436 kts 237°
2026-05-08 08:06 47.87895 -0.98913 33000 ft 435 kts 237°
2026-05-08 08:07 47.84169 -1.06035 32996 ft 435 kts 237°
2026-05-08 08:07 47.80444 -1.13138 32997 ft 435 kts 237°
2026-05-08 08:08 47.76711 -1.20238 32995 ft 435 kts 237°
2026-05-08 08:08 47.72977 -1.27320 32983 ft 435 kts 237°
2026-05-08 08:09 47.69229 -1.34411 32988 ft 435 kts 237°
2026-05-08 08:09 47.65491 -1.41465 32989 ft 435 kts 237°
2026-05-08 08:10 47.61767 -1.48478 32984 ft 435 kts 237°
2026-05-08 08:10 47.57915 -1.55411 32964 ft 437 kts 233°
2026-05-08 08:11 47.53821 -1.62077 32980 ft 437 kts 232°
2026-05-08 08:11 47.49747 -1.68669 32961 ft 437 kts 232°
2026-05-08 08:12 47.45672 -1.75324 32973 ft 436 kts 232°
2026-05-08 08:12 47.41614 -1.81963 32970 ft 435 kts 232°
2026-05-08 08:13 47.37547 -1.88573 32966 ft 435 kts 230°
2026-05-08 08:13 47.32668 -1.94005 32970 ft 446 kts 213°
2026-05-08 08:14 47.26923 -1.97497 32965 ft 451 kts 205°
2026-05-08 08:14 47.21031 -2.00670 32969 ft 451 kts 205°
2026-05-08 08:15 47.15145 -2.03869 32946 ft 450 kts 205°
2026-05-08 08:15 47.09302 -2.07079 32966 ft 449 kts 205°
2026-05-08 08:16 47.03448 -2.10305 32960 ft 449 kts 205°
2026-05-08 08:16 46.97604 -2.13521 32964 ft 448 kts 205°
2026-05-08 08:17 46.91762 -2.16728 32953 ft 447 kts 205°
2026-05-08 08:17 46.85943 -2.19913 32961 ft 446 kts 205°
2026-05-08 08:18 46.80162 -2.23069 32964 ft 446 kts 205°
2026-05-08 08:18 46.74346 -2.26238 32961 ft 446 kts 205°
2026-05-08 08:19 46.68531 -2.29399 32959 ft 445 kts 205°
2026-05-08 08:19 46.62718 -2.32552 32963 ft 445 kts 205°
2026-05-08 08:20 46.56908 -2.35696 32958 ft 446 kts 205°
2026-05-08 08:20 46.51127 -2.38816 32951 ft 445 kts 205°
2026-05-08 08:21 46.45303 -2.41953 32974 ft 445 kts 204°
2026-05-08 08:21 46.39493 -2.45075 32957 ft 445 kts 204°
2026-05-08 08:22 46.33686 -2.48189 32958 ft 444 kts 204°
2026-05-08 08:22 46.27915 -2.51275 32951 ft 444 kts 204°
2026-05-08 08:23 46.22126 -2.54365 32945 ft 443 kts 204°
2026-05-08 08:23 46.16344 -2.57444 32951 ft 443 kts 204°
2026-05-08 08:24 46.10556 -2.60520 32940 ft 442 kts 204°
2026-05-08 08:24 46.04782 -2.63581 32944 ft 441 kts 204°
2026-05-08 08:25 45.99022 -2.66628 32951 ft 441 kts 204°
2026-05-08 08:25 45.93296 -2.69650 32931 ft 441 kts 203°
2026-05-08 08:26 45.87537 -2.72683 32942 ft 440 kts 203°
2026-05-08 08:26 45.81787 -2.75705 32941 ft 440 kts 203°
2026-05-08 08:27 45.76060 -2.78708 32934 ft 440 kts 203°
2026-05-08 08:27 45.70326 -2.81708 32928 ft 439 kts 202°
2026-05-08 08:28 45.64593 -2.84701 32924 ft 438 kts 202°
2026-05-08 08:28 45.58877 -2.87679 32926 ft 437 kts 202°
2026-05-08 08:29 45.53162 -2.90649 32915 ft 436 kts 202°
2026-05-08 08:29 45.47465 -2.93605 32919 ft 435 kts 202°
2026-05-08 08:30 45.41771 -2.96552 32913 ft 435 kts 202°
2026-05-08 08:30 45.33278 -3.00912 32906 ft 434 kts 199°
2026-05-08 08:31 45.27295 -3.02325 32919 ft 437 kts 186°
2026-05-08 08:31 45.21211 -3.02901 32907 ft 438 kts 186°
2026-05-08 08:32 45.15130 -3.03496 32899 ft 437 kts 186°
2026-05-08 08:32 45.09055 -3.04127 32908 ft 437 kts 186°
2026-05-08 08:33 45.03025 -3.04767 32903 ft 437 kts 186°
2026-05-08 08:33 44.96957 -3.05413 32893 ft 437 kts 186°
2026-05-08 08:34 44.93916 -3.05736 32601 ft 438 kts 186°
2026-05-08 08:34 44.90889 -3.06057 32341 ft 434 kts 186°
2026-05-08 08:34 44.87870 -3.06375 32085 ft 434 kts 186°
2026-05-08 08:34 44.84840 -3.06696 31833 ft 437 kts 186°
2026-05-08 08:35 44.81802 -3.07017 31581 ft 438 kts 186°
2026-05-08 08:35 44.78789 -3.07335 31335 ft 440 kts 186°
2026-05-08 08:35 44.75735 -3.07656 31086 ft 441 kts 186°
2026-05-08 08:35 44.72675 -3.07978 30831 ft 441 kts 186°
2026-05-08 08:36 44.69603 -3.08301 30590 ft 442 kts 186°
2026-05-08 08:36 44.66529 -3.08623 30358 ft 442 kts 186°
2026-05-08 08:36 44.63459 -3.08945 30109 ft 443 kts 186°
2026-05-08 08:36 44.60374 -3.09268 29777 ft 442 kts 186°
2026-05-08 08:37 44.57337 -3.09586 28813 ft 442 kts 185°
2026-05-08 08:37 44.54276 -3.09906 28040 ft 439 kts 185°
2026-05-08 08:37 44.51256 -3.10221 27401 ft 433 kts 185°
2026-05-08 08:37 44.48269 -3.10532 26757 ft 428 kts 185°
2026-05-08 08:38 44.45309 -3.10840 26124 ft 423 kts 185°
2026-05-08 08:38 44.42380 -3.11145 25518 ft 419 kts 185°
2026-05-08 08:38 44.39479 -3.11447 24907 ft 415 kts 184°
2026-05-08 08:38 44.36608 -3.11745 24299 ft 412 kts 184°
2026-05-08 08:39 44.33756 -3.12042 23677 ft 410 kts 184°
2026-05-08 08:39 44.30958 -3.12332 22998 ft 407 kts 184°
2026-05-08 08:39 44.28144 -3.12623 22334 ft 404 kts 184°
2026-05-08 08:39 44.25357 -3.12912 21715 ft 399 kts 184°
2026-05-08 08:40 44.22593 -3.13197 21107 ft 395 kts 184°
2026-05-08 08:40 44.19862 -3.13479 20516 ft 392 kts 184°
2026-05-08 08:40 44.17156 -3.13759 19928 ft 388 kts 184°
2026-05-08 08:40 44.14468 -3.14036 19346 ft 385 kts 184°
2026-05-08 08:41 44.11800 -3.14311 18772 ft 382 kts 184°
2026-05-08 08:41 44.09154 -3.14583 18172 ft 380 kts 184°
2026-05-08 08:41 44.06521 -3.14854 17520 ft 378 kts 184°
2026-05-08 08:41 44.03930 -3.15318 16908 ft 375 kts 192°
2026-05-08 08:42 44.01408 -3.16205 16336 ft 371 kts 194°
2026-05-08 08:42 43.98926 -3.17143 15768 ft 368 kts 194°
2026-05-08 08:42 43.96467 -3.18077 15197 ft 365 kts 194°
2026-05-08 08:42 43.94027 -3.18995 14655 ft 362 kts 194°
2026-05-08 08:43 43.91634 -3.19884 14116 ft 359 kts 194°
2026-05-08 08:43 43.89215 -3.20775 13541 ft 357 kts 194°
2026-05-08 08:43 43.86819 -3.21651 12929 ft 355 kts 194°
2026-05-08 08:43 43.84434 -3.22518 12354 ft 352 kts 194°
2026-05-08 08:44 43.82861 -3.23089 11979 ft 350 kts 194°
2026-05-08 08:44 43.79750 -3.24217 11254 ft 346 kts 194°
2026-05-08 08:44 43.77423 -3.25059 10790 ft 342 kts 194°
2026-05-08 08:44 43.75913 -3.25605 10697 ft 332 kts 194°
2026-05-08 08:45 43.73715 -3.26400 10543 ft 321 kts 194°
2026-05-08 08:45 43.71598 -3.27165 10481 ft 306 kts 194°
2026-05-08 08:45 43.68927 -3.28129 10322 ft 292 kts 194°
2026-05-08 08:45 43.67613 -3.28603 10252 ft 285 kts 194°
2026-05-08 08:46 43.65742 -3.29277 10138 ft 276 kts 194°
2026-05-08 08:46 43.63910 -3.29936 10023 ft 268 kts 194°
2026-05-08 08:46 43.62120 -3.30580 9776 ft 265 kts 194°
2026-05-08 08:46 43.60336 -3.31222 9488 ft 263 kts 194°
2026-05-08 08:47 43.58566 -3.31858 9192 ft 262 kts 194°
2026-05-08 08:47 43.56801 -3.32492 8890 ft 261 kts 194°
2026-05-08 08:47 43.55049 -3.33121 8600 ft 260 kts 194°
2026-05-08 08:47 43.53305 -3.33747 8309 ft 258 kts 194°
2026-05-08 08:48 43.51567 -3.34370 8012 ft 258 kts 194°
2026-05-08 08:48 43.49829 -3.34993 7721 ft 257 kts 194°
2026-05-08 08:48 43.48090 -3.35604 7430 ft 257 kts 191°
2026-05-08 08:48 43.46336 -3.35772 7132 ft 255 kts 179°
2026-05-08 08:49 43.44564 -3.35742 6852 ft 255 kts 180°
2026-05-08 08:49 43.42788 -3.35808 6563 ft 254 kts 183°
2026-05-08 08:49 43.41024 -3.35996 6278 ft 254 kts 186°
2026-05-08 08:49 43.39272 -3.36277 5995 ft 253 kts 187°
2026-05-08 08:50 43.37528 -3.36636 5699 ft 253 kts 190°
2026-05-08 08:50 43.35811 -3.37110 5480 ft 247 kts 193°
2026-05-08 08:50 43.34188 -3.37687 5394 ft 237 kts 200°
2026-05-08 08:50 43.32877 -3.38954 5268 ft 231 kts 232°
2026-05-08 08:51 43.32251 -3.40935 5177 ft 226 kts 258°
2026-05-08 08:51 43.32339 -3.43064 5052 ft 226 kts 281°
2026-05-08 08:51 43.32814 -3.45109 4853 ft 227 kts 284°
2026-05-08 08:51 43.33342 -3.47155 4641 ft 228 kts 284°
2026-05-08 08:52 43.33881 -3.49207 4372 ft 229 kts 287°
2026-05-08 08:52 43.34493 -3.51203 4165 ft 222 kts 287°
2026-05-08 08:52 43.35056 -3.53155 4105 ft 217 kts 285°
2026-05-08 08:52 43.35590 -3.55148 3850 ft 225 kts 285°
2026-05-08 08:53 43.36118 -3.57139 3546 ft 223 kts 286°
2026-05-08 08:53 43.36640 -3.59117 3273 ft 216 kts 285°
2026-05-08 08:53 43.37139 -3.60996 2989 ft 202 kts 286°
2026-05-08 08:53 43.37604 -3.62763 2741 ft 193 kts 284°
2026-05-08 08:54 43.38053 -3.64466 2483 ft 187 kts 284°
2026-05-08 08:54 43.38491 -3.66124 2231 ft 182 kts 285°
2026-05-08 08:54 43.38919 -3.67734 1992 ft 176 kts 286°
2026-05-08 08:54 43.39335 -3.69306 1747 ft 174 kts 286°
2026-05-08 08:55 43.39741 -3.70839 1520 ft 166 kts 286°
2026-05-08 08:55 43.40124 -3.72288 1328 ft 156 kts 286°
2026-05-08 08:55 43.40495 -3.73688 1108 ft 155 kts 288°
2026-05-08 08:55 43.40863 -3.75067 916 ft 152 kts 287°
2026-05-08 08:56 43.41222 -3.76432 673 ft 150 kts 288°
2026-05-08 08:56 43.41563 -3.77727 490 ft 145 kts 289°
2026-05-08 08:56 43.41912 -3.79041 321 ft 146 kts 289°
2026-05-08 08:56 43.42265 -3.80364 136 ft 148 kts 290°
2026-05-08 08:57 43.42615 -3.81666 21 ft 132 kts 290°
2026-05-08 08:57 43.42862 -3.82587 19 ft 80 kts 290°
2026-05-08 08:57 43.42941 -3.82911 18 ft 9 kts 266°
2026-05-08 08:57 43.42921 -3.82989 19 ft 8 kts 239°
2026-05-08 08:58 43.42880 -3.83032 18 ft 8 kts 200°
2026-05-08 08:58 43.42830 -3.83025 20 ft 7 kts 149°
2026-05-08 08:58 43.42798 -3.82976 18 ft 7 kts 117°
2026-05-08 08:58 43.42782 -3.82916 18 ft 8 kts 109°
2026-05-08 08:59 43.42759 -3.82830 19 ft 12 kts 110°
2026-05-08 08:59 43.42726 -3.82707 19 ft 16 kts 110°
2026-05-08 08:59 43.42684 -3.82550 19 ft 19 kts 109°
2026-05-08 08:59 43.42637 -3.82373 18 ft 12 kts 110°
2026-05-08 09:00 43.42615 -3.82314 19 ft 6 kts 137°
2026-05-08 09:00 43.42581 -3.82303 18 ft 5 kts 186°
2026-05-08 09:00 43.42541 -3.82320 20 ft 8 kts 199°
2026-05-08 09:00 43.42483 -3.82349 18 ft 8 kts 200°
2026-05-08 09:01 43.42439 -3.82334 19 ft 6 kts 112°
2026-05-08 09:01 43.42425 -3.82277 19 ft 6 kts 109°
2026-05-08 09:01 43.42409 -3.82220 19 ft 6 kts 120°
2026-05-08 09:01 43.42375 -3.82216 18 ft 4 kts 193°
2026-05-08 09:02 43.42356 -3.82224 18 ft 2 kts 199°
2026-05-08 09:02 43.42354 -3.82225 18 ft 0 kts 199°
2026-05-08 09:03 43.48874 -3.35335 7556 ft 257 kts 194°
2026-05-08 09:03 43.36967 -3.60354 3065 ft 205 kts 287°
2026-05-08 09:03 43.39165 -3.68662 1843 ft 175 kts 286°
2026-05-08 09:04 43.39576 -3.70219 1619 ft 169 kts 286°